Location: El Bakhil
(32.7726°N, 5.5387°W)
Time: 01:04:16
(UTC+00:00)

Hubble Space Telescope - Pass Details

Date: 04 December 2021
Orbit: 535 x 538 km, 28.5° (Epoch: 23 January)

Event Time Altitude Azimuth Distance (km) Brightness Sun altitude
Exits shadow 05:07:56 25° 177° (S) 1,099 2.4 -24.9°
Drops below altitude 10° 05:10:39 10° 138° (SE) 1,771 4.1 -24.3°
Sets 05:13:09 0° 126° (SE) 2,660 5.4 -23.8°
